Atmospheric History
12/06/2017 18:44  to  12/7/2017 18:44
Change End Date:
To complete the export process:
1) Select all of the data below
2) Copy the data to the clipboard
3) Open a word processor such as Notepad
4) Paste the data into the word processor
5) Save the file

Date/Time (MST), AirTemp, RH, Dewpoint ,AvgWindSpeed, GustWindSpeed, WindDirection, PrecipType, PrecipIntensity, PrecipAccumulation, PrecipRate
12/07/2017 18:41, 17, 92, 15 ,1, 2, NE, None, None, ,  
12/07/2017 18:31, 17, 92, 15 ,0, 1, SE, None, None, ,  
12/07/2017 18:22, 16, 91, 14 ,0, 1, NE, None, None, ,  
12/07/2017 18:21, 16, 91, 14 ,0, 1, NE, None, None, ,  
12/07/2017 18:11, 15, 91, 13 ,0, 0, E, None, None, ,  
12/07/2017 18:07, 15, 91, 13 ,0, 0, E, None, None, ,  
12/07/2017 18:01, 15, 91, 13 ,0, 1, E, None, None, ,  
12/07/2017 17:51, 15, 91, 13 ,0, 2, E, None, None, ,  
12/07/2017 17:51, 15, 91, 13 ,1, 2, E, None, None, ,  
12/07/2017 17:41, 14, 91, 12 ,0, 1, E, None, None, ,  
12/07/2017 17:37, 15, 91, 13 ,0, 1, E, None, None, ,  
12/07/2017 17:31, 15, 91, 13 ,0, 1, E, None, None, ,  
12/07/2017 17:21, 16, 91, 14 ,1, 1, E, None, None, ,  
12/07/2017 17:11, 16, 91, 14 ,1, 1, E, None, None, ,  
12/07/2017 17:06, 16, 91, 14 ,0, 1, S, None, None, ,  
12/07/2017 17:01, 16, 90, 14 ,0, 0, S, None, None, ,  
12/07/2017 16:51, 16, 90, 14 ,0, 1, S, None, None, ,  
12/07/2017 16:51, 17, 90, 14 ,0, 1, S, None, None, ,  
12/07/2017 16:41, 17, 89, 15 ,0, 1, S, None, None, ,  
12/07/2017 16:36, 18, 88, 15 ,0, 1, S, None, None, ,  
12/07/2017 16:31, 18, 88, 15 ,1, 2, S, None, None, ,  
12/07/2017 16:21, 19, 86, 15 ,1, 2, S, None, None, ,  
12/07/2017 16:21, 19, 86, 15 ,1, 2, S, None, None, ,  
12/07/2017 16:11, 20, 84, 16 ,2, 3, S, None, None, ,  
12/07/2017 16:06, 21, 84, 17 ,2, 3, SW, None, None, ,  
12/07/2017 16:01, 22, 84, 17 ,2, 3, SW, None, None, ,  
12/07/2017 15:52, 22, 84, 18 ,2, 3, W, None, None, ,  
12/07/2017 15:50, 22, 84, 18 ,2, 3, W, None, None, ,  
12/07/2017 15:40, 22, 84, 17 ,3, 4, SW, None, None, ,  
12/07/2017 15:37, 22, 83, 18 ,4, 4, SW, None, None, ,  
12/07/2017 15:30, 22, 82, 18 ,4, 4, SW, None, None, ,  
12/07/2017 15:22, 22, 82, 18 ,2, 4, SW, None, None, ,  
12/07/2017 15:20, 22, 82, 18 ,2, 4, SW, None, None, ,  
12/07/2017 15:10, 22, 83, 18 ,2, 4, SW, None, None, ,  
12/07/2017 15:07, 22, 83, 18 ,3, 4, SW, None, None, ,  
12/07/2017 15:00, 22, 84, 18 ,2, 4, SW, None, None, ,  
12/07/2017 14:52, 22, 84, 19 ,3, 4, SW, None, None, ,  
12/07/2017 14:50, 23, 84, 19 ,3, 4, SW, None, None, ,  
12/07/2017 14:40, 23, 86, 19 ,2, 4, SW, None, None, ,  
12/07/2017 14:37, 23, 88, 20 ,2, 2, W, None, None, ,  
12/07/2017 14:30, 22, 91, 20 ,1, 2, W, None, None, ,  
12/07/2017 14:20, 21, 92, 19 ,1, 1, W, None, None, ,  
12/07/2017 14:10, 21, 92, 19 ,0, 2, W, None, None, ,  
12/07/2017 14:07, 21, 92, 20 ,1, 2, NW, None, None, ,  
12/07/2017 14:00, 22, 92, 20 ,0, 1, NW, None, None, ,  
12/07/2017 13:51, 21, 92, 20 ,0, 2, W, None, None, ,  
12/07/2017 13:50, 21, 92, 19 ,1, 2, W, None, None, ,  
12/07/2017 13:40, 22, 92, 20 ,0, 1, SW, None, None, ,  
12/07/2017 13:36, 21, 92, 19 ,0, 2, W, None, None, ,  
12/07/2017 13:30, 20, 92, 19 ,1, 3, W, None, None, ,  
12/07/2017 13:22, 21, 92, 19 ,1, 2, NW, None, None, ,  
12/07/2017 13:20, 21, 93, 19 ,1, 2, NW, None, None, ,  
12/07/2017 13:10, 21, 93, 19 ,1, 2, W, None, None, ,  
12/07/2017 13:06, 21, 93, 19 ,0, 2, SW, None, None, ,  
12/07/2017 13:00, 21, 93, 19 ,1, 3, W, None, None, ,  
12/07/2017 12:51, 21, 93, 19 ,0, 1, S, None, None, ,  
12/07/2017 12:50, 21, 93, 19 ,0, 1, S, None, None, ,  
12/07/2017 12:40, 20, 93, 18 ,2, 4, SW, None, None, ,  
12/07/2017 12:37, 20, 93, 18 ,1, 4, W, None, None, ,  
12/07/2017 12:30, 20, 93, 18 ,1, 3, NW, None, None, ,  
12/07/2017 12:21, 19, 93, 18 ,2, 4, W, None, None, ,  
12/07/2017 12:20, 19, 93, 18 ,3, 4, W, None, None, ,  
12/07/2017 12:10, 19, 93, 18 ,3, 5, W, None, None, ,  
12/07/2017 12:07, 19, 93, 18 ,4, 4, SW, None, None, ,  
12/07/2017 11:59, 19, 93, 18 ,2, 4, SW, None, None, ,  
12/07/2017 11:52, 19, 93, 18 ,3, 4, W, None, None, ,  
12/07/2017 11:49, 19, 93, 17 ,2, 4, W, None, None, ,  
12/07/2017 11:39, 19, 92, 18 ,3, 4, W, None, None, ,  
12/07/2017 11:36, 20, 92, 18 ,2, 4, W, None, None, ,  
12/07/2017 11:29, 20, 93, 18 ,2, 4, W, None, None, ,  
12/07/2017 11:22, 20, 93, 19 ,2, 5, NW, None, None, ,  
12/07/2017 11:19, 21, 93, 19 ,4, 5, NW, None, None, ,  
12/07/2017 11:09, 21, 93, 19 ,1, 4, N, None, None, ,  
12/07/2017 11:06, 20, 93, 19 ,2, 4, N, None, None, ,  
12/07/2017 10:59, 20, 93, 19 ,1, 3, NW, None, None, ,  
12/07/2017 10:51, 20, 92, 19 ,1, 2, NW, None, None, ,  
12/07/2017 10:49, 20, 92, 19 ,1, 2, NW, None, None, ,  
12/07/2017 10:39, 20, 92, 18 ,1, 3, NE, None, None, ,  
12/07/2017 10:36, 20, 92, 18 ,2, 3, NE, None, None, ,  
12/07/2017 10:29, 20, 92, 18 ,1, 4, NE, None, None, ,  
12/07/2017 10:21, 20, 92, 18 ,2, 3, N, None, None, ,  
12/07/2017 10:19, 20, 92, 18 ,1, 3, N, None, None, ,  
12/07/2017 10:09, 20, 92, 18 ,2, 3, N, None, None, ,  
12/07/2017 10:06, 20, 92, 18 ,2, 3, N, None, None, ,  
12/07/2017 09:59, 19, 92, 17 ,2, 3, N, None, None, ,  
12/07/2017 09:52, 18, 92, 17 ,2, 4, NW, None, None, ,  
12/07/2017 09:49, 18, 92, 16 ,2, 4, N, None, None, ,  
12/07/2017 09:39, 18, 92, 16 ,2, 4, NW, None, None, ,  
12/07/2017 09:36, 18, 92, 16 ,2, 4, NW, None, None, ,  
12/07/2017 09:29, 18, 92, 16 ,2, 3, NW, None, None, ,  
12/07/2017 09:22, 18, 92, 16 ,1, 2, NE, None, None, ,  
12/07/2017 09:19, 18, 92, 17 ,2, 2, N, None, None, ,  
12/07/2017 09:09, 18, 92, 16 ,1, 1, N, None, None, ,  
12/07/2017 09:06, 18, 92, 16 ,1, 1, N, None, None, ,  
12/07/2017 08:58, 18, 92, 16 ,0, 0, SE, None, None, ,  
12/07/2017 08:51, 17, 92, 16 ,0, 0, S, None, None, ,  
12/07/2017 08:48, 17, 92, 16 ,0, 0, S, None, None, ,  
12/07/2017 08:38, 17, 92, 15 ,0, 0, S, None, None, ,  
12/07/2017 08:36, 17, 92, 15 ,0, 0, S, None, None, ,  
12/07/2017 08:28, 17, 92, 15 ,0, 0, S, None, None, ,  
12/07/2017 08:21, 17, 92, 15 ,0, 0, S, None, None, ,  
12/07/2017 08:18, 17, 92, 15 ,0, 1, S, None, None, ,  
12/07/2017 08:08, 17, 92, 15 ,1, 2, S, None, None, ,  
12/07/2017 08:06, 17, 92, 15 ,1, 2, S, None, None, ,  
12/07/2017 07:58, 16, 91, 14 ,0, 0, SW, None, None, ,  
12/07/2017 07:51, 16, 91, 14 ,0, 1, SW, None, None, ,  
12/07/2017 07:48, 16, 91, 14 ,0, 1, SW, None, None, ,  
12/07/2017 07:38, 16, 91, 14 ,0, 1, SW, None, None, ,  
12/07/2017 07:36, 16, 91, 14 ,0, 1, SW, None, None, ,  
12/07/2017 07:28, 16, 91, 14 ,0, 0, NE, None, None, ,  
12/07/2017 07:21, 16, 91, 14 ,0, 0, NE, None, None, ,  
12/07/2017 07:18, 16, 91, 14 ,0, 0, NE, None, None, ,  
12/07/2017 07:08, 16, 91, 13 ,0, 1, NE, None, None, ,  
12/07/2017 07:07, 16, 91, 13 ,0, 1, NE, None, None, ,  
12/07/2017 06:58, 15, 91, 13 ,0, 1, SW, None, None, ,  
12/07/2017 06:52, 15, 91, 13 ,0, 1, SW, None, None, ,  
12/07/2017 06:48, 15, 91, 13 ,0, 0, SW, None, None, ,  
12/07/2017 06:38, 15, 91, 13 ,0, 0, SW, None, None, ,  
12/07/2017 06:37, 15, 91, 13 ,0, 0, SW, None, None, ,  
12/07/2017 06:28, 15, 91, 13 ,0, 1, SW, None, None, ,  
12/07/2017 06:22, 15, 91, 12 ,1, 1, SW, None, None, ,  
12/07/2017 06:18, 15, 91, 12 ,0, 0, SW, None, None, ,  
12/07/2017 06:08, 15, 91, 12 ,0, 1, W, None, None, ,  
12/07/2017 06:07, 14, 91, 12 ,0, 1, W, None, None, ,  
12/07/2017 05:58, 14, 91, 12 ,0, 1, N, None, None, ,  
12/07/2017 05:52, 15, 91, 12 ,0, 1, NE, None, None, ,  
12/07/2017 05:48, 14, 91, 12 ,0, 0, N, None, None, ,  
12/07/2017 05:37, 14, 91, 12 ,0, 0, N, None, None, ,  
12/07/2017 05:37, 14, 91, 12 ,0, 0, N, None, None, ,  
12/07/2017 05:27, 14, 90, 12 ,0, 0, N, None, None, ,  
12/07/2017 05:22, 14, 90, 12 ,0, 0, N, None, None, ,  
12/07/2017 05:17, 14, 90, 12 ,0, 1, N, None, None, ,  
12/07/2017 05:07, 14, 90, 12 ,0, 2, SW, None, None, ,  
12/07/2017 05:07, 14, 90, 12 ,0, 2, SW, None, None, ,  
12/07/2017 04:57, 14, 90, 11 ,1, 2, SW, None, None, ,  
12/07/2017 04:52, 13, 90, 11 ,0, 0, W, None, None, ,  
12/07/2017 04:47, 13, 90, 11 ,0, 1, W, None, None, ,  
12/07/2017 04:37, 12, 90, 10 ,1, 2, N, None, None, ,  
12/07/2017 04:37, 12, 90, 10 ,1, 2, N, None, None, ,  
12/07/2017 04:27, 12, 90, 10 ,0, 1, SW, None, None, ,  
12/07/2017 04:22, 12, 90, 10 ,0, 1, SW, None, None, ,  
12/07/2017 04:17, 12, 90, 10 ,0, 2, SW, None, None, ,  
12/07/2017 04:07, 12, 90, 10 ,0, 1, SW, None, None, ,  
12/07/2017 04:06, 13, 90, 10 ,0, 1, SW, None, None, ,  
12/07/2017 03:57, 13, 90, 11 ,0, 1, SW, None, None, ,  
12/07/2017 03:52, 13, 90, 11 ,0, 1, N, None, None, ,  
12/07/2017 03:47, 13, 90, 10 ,0, 2, N, None, None, ,  
12/07/2017 03:37, 12, 90, 10 ,2, 4, NE, None, None, ,  
12/07/2017 03:37, 12, 90, 10 ,2, 4, NE, None, None, ,  
12/07/2017 03:27, 11, 90, 9 ,3, 4, NE, None, None, ,  
12/07/2017 03:22, 11, 90, 9 ,1, 3, N, None, None, ,  
12/07/2017 03:17, 10, 90, 8 ,2, 4, N, None, None, ,  
12/07/2017 03:07, 11, 90, 8 ,2, 2, N, None, None, ,  
12/07/2017 03:07, 11, 90, 8 ,2, 2, N, None, None, ,  
12/07/2017 02:57, 10, 90, 8 ,1, 2, NE, None, None, ,  
12/07/2017 02:52, 10, 90, 8 ,2, 2, NE, None, None, ,  
12/07/2017 02:47, 10, 90, 8 ,0, 1, N, None, None, ,  
12/07/2017 02:37, 11, 90, 9 ,0, 1, W, None, None, ,  
12/07/2017 02:27, 12, 90, 10 ,0, 1, NE, None, None, ,  
12/07/2017 02:22, 12, 90, 9 ,0, 2, NW, None, None, ,  
12/07/2017 02:17, 11, 90, 9 ,1, 2, NW, None, None, ,  
12/07/2017 02:06, 11, 90, 8 ,2, 2, NE, None, None, ,  
12/07/2017 02:06, 11, 90, 8 ,2, 2, NE, None, None, ,  
12/07/2017 01:56, 10, 90, 7 ,2, 2, NE, None, None, ,  
12/07/2017 01:52, 10, 90, 7 ,1, 2, N, None, None, ,  
12/07/2017 01:46, 9, 90, 7 ,1, 2, NE, None, None, ,  
12/07/2017 01:37, 10, 90, 7 ,0, 2, N, None, None, ,  
12/07/2017 01:36, 10, 90, 7 ,0, 2, N, None, None, ,  
12/07/2017 01:26, 10, 90, 8 ,1, 1, N, None, None, ,  
12/07/2017 01:21, 10, 90, 8 ,1, 2, N, None, None, ,  
12/07/2017 01:16, 10, 90, 7 ,1, 2, NE, None, None, ,  
12/07/2017 01:07, 9, 90, 7 ,1, 2, NE, None, None, ,  
12/07/2017 01:06, 10, 90, 7 ,1, 2, NE, None, None, ,  
12/07/2017 00:56, 10, 90, 7 ,2, 3, NE, None, None, ,  
12/07/2017 00:52, 9, 90, 7 ,1, 2, N, None, None, ,  
12/07/2017 00:46, 10, 90, 8 ,0, 1, NE, None, None, ,  
12/07/2017 00:37, 10, 90, 8 ,0, 2, NE, None, None, ,  
12/07/2017 00:36, 10, 90, 8 ,1, 2, NE, None, None, ,  
12/07/2017 00:26, 11, 90, 8 ,0, 0, N, None, None, ,  
12/07/2017 00:21, 10, 90, 8 ,0, 1, N, None, None, ,  
12/07/2017 00:16, 10, 90, 8 ,0, 1, N, None, None, ,  
12/07/2017 00:07, 11, 90, 9 ,0, 4, N, None, None, ,  
12/07/2017 00:06, 11, 90, 9 ,0, 4, N, None, None, ,  
12/06/2017 23:56, 10, 90, 8 ,0, 1, W, None, None, ,  
12/06/2017 23:52, 11, 91, 8 ,0, 0, W, None, None, ,  
12/06/2017 23:46, 11, 91, 9 ,0, 2, NW, None, None, ,  
12/06/2017 23:37, 11, 91, 9 ,0, 0, N, None, None, ,  
12/06/2017 23:36, 11, 91, 9 ,0, 1, N, None, None, ,  
12/06/2017 23:26, 12, 91, 10 ,1, 1, NW, None, None, ,  
12/06/2017 23:21, 12, 91, 10 ,1, 2, N, None, None, ,  
12/06/2017 23:16, 12, 91, 10 ,1, 2, N, None, None, ,  
12/06/2017 23:07, 13, 91, 11 ,0, 2, N, None, None, ,  
12/06/2017 23:06, 13, 91, 11 ,1, 2, N, None, None, ,  
12/06/2017 22:56, 13, 91, 11 ,0, 1, NW, None, None, ,  
12/06/2017 22:52, 13, 91, 11 ,1, 1, N, None, None, ,  
12/06/2017 22:45, 13, 91, 11 ,1, 2, NW, None, None, ,  
12/06/2017 22:36, 12, 91, 10 ,2, 3, N, None, None, ,  
12/06/2017 22:35, 13, 91, 11 ,2, 3, NE, None, None, ,  
12/06/2017 22:25, 13, 91, 11 ,1, 2, N, None, None, ,  
12/06/2017 22:22, 13, 91, 11 ,0, 2, N, None, None, ,  
12/06/2017 22:15, 13, 91, 11 ,1, 2, N, None, None, ,  
12/06/2017 22:06, 14, 91, 12 ,0, 2, N, None, None, ,  
12/06/2017 22:05, 14, 91, 12 ,0, 2, N, None, None, ,  
12/06/2017 21:55, 13, 91, 11 ,0, 2, NE, None, None, ,  
12/06/2017 21:51, 13, 91, 11 ,1, 2, NE, None, None, ,  
12/06/2017 21:45, 12, 91, 10 ,0, 1, N, None, None, ,  
12/06/2017 21:37, 12, 91, 10 ,0, 3, N, None, None, ,  
12/06/2017 21:35, 12, 91, 10 ,0, 3, NW, None, None, ,  
12/06/2017 21:25, 13, 91, 11 ,2, 5, N, None, None, ,  
12/06/2017 21:22, 14, 91, 12 ,2, 5, N, None, None, ,  
12/06/2017 21:15, 14, 91, 12 ,0, 4, N, None, None, ,  
12/06/2017 21:06, 13, 91, 11 ,0, 1, NE, None, None, ,  
12/06/2017 21:05, 13, 91, 11 ,0, 1, N, None, None, ,  
12/06/2017 20:55, 13, 92, 11 ,1, 3, N, None, None, ,  
12/06/2017 20:52, 13, 92, 11 ,2, 3, N, None, None, ,  
12/06/2017 20:45, 14, 92, 12 ,0, 1, SE, None, None, ,  
12/06/2017 20:37, 16, 92, 14 ,0, 3, N, None, None, ,  
12/06/2017 20:35, 16, 92, 14 ,1, 4, N, None, None, ,  
12/06/2017 20:25, 14, 91, 11 ,1, 2, NE, None, None, ,  
12/06/2017 20:21, 14, 91, 12 ,1, 2, N, None, None, ,  
12/06/2017 20:15, 14, 91, 12 ,1, 2, N, None, None, ,  
12/06/2017 20:07, 14, 91, 12 ,1, 2, N, None, None, ,  
12/06/2017 20:05, 14, 91, 12 ,1, 2, N, None, None, ,  
12/06/2017 19:55, 15, 91, 12 ,0, 1, NE, None, None, ,  
12/06/2017 19:51, 15, 91, 13 ,0, 1, NE, None, None, ,  
12/06/2017 19:45, 15, 91, 13 ,1, 1, E, None, None, ,  
12/06/2017 19:37, 16, 91, 13 ,0, 1, E, None, None, ,  
12/06/2017 19:34, 16, 91, 14 ,0, 1, E, None, None, ,  
12/06/2017 19:24, 15, 90, 13 ,1, 3, E, None, None, ,  
12/06/2017 19:22, 16, 90, 13 ,1, 3, E, None, None, ,  
12/06/2017 19:14, 16, 89, 13 ,2, 2, E, None, None, ,  
12/06/2017 19:07, 16, 88, 13 ,1, 2, NE, None, None, ,  
12/06/2017 19:04, 16, 88, 13 ,2, 2, NE, None, None, ,  
12/06/2017 18:54, 17, 87, 14 ,2, 2, NE, None, None, ,  
12/06/2017 18:52, 17, 87, 13 ,2, 2, N, None, None, ,  
12/06/2017 18:44, 17, 86, 13 ,2, 3, N, None, None, ,  
Change End Date:

Copyright © 1998-2015 Vaisala, Inc.
All Rights Reserved
Send comments about the data to:
SCAN Web ® is a registered trademark of Vaisala, Inc.
SCAN Web Version 6.0